FW6908 Weather Reports


time (UTC)temp
C
wind
direction
speed
KPH
gust
KPH
rain 1hr
cm
rain 24hr
cm
rain mn
cm
humidity
%
barometer
mb
20260504021518 8 119 0.0 9.7 0.00 0.15 0.00 71 1020.2
20260504021014 8 118 4.8 11.3 0.00 0.15 0.00 72 1020.3
20260504020514 8 130 3.2 11.3 0.00 0.15 0.00 71 1020.3
20260504020014 8 52 4.8 12.9 0.00 0.15 0.00 70 1020.5
20260504015514 8 134 4.8 12.9 0.00 0.15 0.00 70 1020.4
20260504015014 8 30 4.8 12.9 0.00 0.15 0.00 71 1020.4
20260504014513 8 134 4.8 8.0 0.00 0.15 0.00 71 1020.3
20260504014012 8 54 4.8 8.0 0.00 0.15 0.00 70 1020.3
20260504013513 8 105 3.2 14.5 0.00 0.15 0.00 70 1020.4
20260504013016 8 92 6.4 14.5 0.00 0.15 0.00 69 1020.3
20260504012510 8 28 0.0 12.9 0.00 0.15 0.00 69 1020.4
20260504012009 8 347 3.2 8.0 0.00 0.15 0.00 68 1020.3
20260504011509 8 107 3.2 6.4 0.00 0.15 0.00 68 1020.3
20260504011010 9 98 0.0 4.8 0.00 0.15 0.00 67 1020.4
20260504010508 8 119 1.6 4.8 0.00 0.15 0.00 67 1020.3
20260504010009 8 97 3.2 6.4 0.00 0.15 0.00 68 1020.3
20260504005509 9 15 0.0 6.4 0.00 0.15 0.00 67 1020.3
20260504005008 8 119 0.0 4.8 0.00 0.15 0.00 68 1020.1
20260504004516 9 124 1.6 4.8 0.00 0.15 0.00 67 1020.2
20260504004007 9 119 0.0 4.8 0.00 0.15 0.00 66 1020.2
20260504003506 9 101 3.2 4.8 0.00 0.15 0.00 67 1020.2
20260504003006 9 296 1.6 6.4 0.00 0.15 0.00 66 1020.1
20260504002506 9 304 1.6 8.0 0.00 0.15 0.00 66 1020.1
20260504002006 9 71 1.6 12.9 0.00 0.15 0.00 66 1020.1
20260504001506 9 350 3.2 11.3 0.00 0.15 0.00 65 1020.0
20260504001007 9 212 0.0 8.0 0.00 0.15 0.00 65 1020.0
20260504000505 9 211 3.2 8.0 0.00 0.15 0.00 65 1020.0
20260504000005 9 89 1.6 4.8 0.00 0.15 0.00 66 1020.2
20260503235504 9 336 0.0 3.2 0.00 0.15 0.00 65 1020.2
20260503235004 9 337 0.0 12.9 0.00 0.15 0.00 65 1020.2
20260503234504 9 344 1.6 17.7 0.00 0.15 0.00 65 1020.2
20260503234005 9 254 9.7 17.7 0.00 0.15 0.00 66 1020.1
20260503233502 9 246 8.0 14.5 0.00 0.15 0.00 66 1020.2
20260503233001 9 261 3.2 6.4 0.00 0.15 0.00 67 1020.3
20260503232502 9 142 3.2 6.4 0.00 0.15 0.00 67 1020.2
20260503232001 9 49 1.6 4.8 0.00 0.15 0.00 68 1020.3
20260503231607 8 43 1.6 4.8 0.00 0.15 0.00 68 1020.3
20260503231100 8 42 1.6 4.8 0.00 0.15 0.00 69 1020.2
20260503230559 9 48 0.0 0.0 0.00 0.15 0.00 66 1020.2
20260503230116 9 47 0.0 1.6 0.00 0.15 0.00 66 1020.2
20260503225557 10 45 0.0 4.8 0.00 0.23 0.00 65 1020.2
20260503225056 10 27 1.6 4.8 0.00 0.23 0.00 64 1020.1
20260503224603 10 84 1.6 3.2 0.00 0.23 0.00 63 1020.2
20260503224055 10 84 0.0 4.8 0.00 0.23 0.00 63 1020.3
20260503223555 10 137 1.6 9.7 0.00 0.23 0.00 63 1020.3
20260503223054 10 130 3.2 9.7 0.00 0.23 0.00 63 1020.4
20260503222555 10 146 6.4 9.7 0.00 0.23 0.00 64 1020.3
20260503222053 10 326 1.6 6.4 0.00 0.23 0.00 63 1020.4
20260503221553 10 161 3.2 8.0 0.00 0.23 0.00 63 1020.3
20260503221054 10 161 0.0 12.9 0.00 0.23 0.00 64 1020.5
20260503220552 10 155 9.7 12.9 0.00 0.23 0.00 64 1020.4
20260503220052 10 47 1.6 6.4 0.00 0.23 0.00 64 1020.4
20260503215550 10 355 1.6 6.4 0.00 0.23 0.00 64 1020.4
20260503215052 10 360 1.6 12.9 0.00 0.23 0.00 64 1020.4
20260503214551 10 296 3.2 12.9 0.00 0.23 0.00 64 1020.3
20260503214050 10 333 6.4 16.1 0.00 0.23 0.00 64 1020.4
20260503213549 10 342 8.0 20.9 0.00 0.23 0.00 64 1020.3
20260503213054 10 327 14.5 20.9 0.00 0.23 0.00 63 1020.4
20260503212548 10 10 6.4 16.1 0.00 0.23 0.00 63 1020.4
20260503212047 10 338 11.3 16.1 0.00 0.23 0.00 63 1020.4
20260503211604 10 328 3.2 14.5 0.00 0.23 0.00 62 1020.3
20260503211145 10 360 1.6 9.7 0.00 0.23 0.00 62 1020.4
20260503210546 10 273 1.6 4.8 0.00 0.23 0.00 61 1020.3
20260503210044 10 299 0.0 8.0 0.00 0.23 0.23 62 1020.3
20260503205544 10 299 3.2 9.7 0.00 0.23 0.23 62 1020.3
20260503205043 10 349 4.8 12.9 0.00 0.23 0.23 62 1020.3
20260503204543 11 303 6.4 19.3 0.00 0.23 0.23 61 1020.3
20260503204043 11 294 12.9 19.3 0.00 0.23 0.23 61 1020.4
20260503203542 11 333 6.4 12.9 0.00 0.23 0.23 61 1020.3
20260503203047 11 326 6.4 12.9 0.00 0.23 0.23 60 1020.4
20260503202545 11 321 3.2 9.7 0.00 0.23 0.23 60 1020.4
20260503202043 11 248 0.0 8.0 0.00 0.23 0.23 60 1020.5
20260503201543 11 287 4.8 9.7 0.00 0.23 0.23 60 1020.4
20260503201046 11 331 6.4 12.9 0.00 0.23 0.23 60 1020.4
20260503200541 11 318 8.0 20.9 0.00 0.23 0.23 60 1020.5
20260503200054 11 311 8.0 20.9 0.00 0.23 0.23 59 1020.5
20260503195541 11 294 4.8 11.3 0.00 0.23 0.23 59 1020.5
20260503195043 11 313 3.2 16.1 0.00 0.23 0.23 59 1020.6
20260503194544 11 315 6.4 16.1 0.00 0.23 0.23 59 1020.6
20260503194042 11 323 9.7 14.5 0.00 0.23 0.23 59 1020.5
20260503193542 11 343 4.8 14.5 0.00 0.23 0.23 59 1020.5
20260503193052 11 329 8.0 14.5 0.00 0.23 0.23 58 1020.5
20260503192541 11 319 4.8 12.9 0.00 0.23 0.23 58 1020.5
20260503192040 11 360 6.4 16.1 0.00 0.23 0.23 58 1020.5
20260503191640 11 336 8.0 19.3 0.00 0.23 0.23 58 1020.5
20260503191041 11 355 9.7 19.3 0.00 0.23 0.23 59 1020.5
20260503190539 11 295 12.9 17.7 0.00 0.23 0.23 58 1020.5
20260503190044 11 315 11.3 17.7 0.00 0.23 0.23 59 1020.5
20260503185538 11 304 9.7 14.5 0.00 0.23 0.23 59 1020.4
20260503185037 11 315 8.0 16.1 0.00 0.23 0.23 58 1020.3
20260503184546 11 314 6.4 22.5 0.00 0.23 0.23 58 1020.3
20260503184036 11 313 11.3 22.5 0.00 0.23 0.23 57 1020.1
20260503183534 11 316 12.9 33.8 0.00 0.23 0.23 57 1020.0
20260503183040 11 336 14.5 33.8 0.00 0.23 0.23 57 1019.8
20260503182536 11 351 12.9 22.5 0.00 0.23 0.23 58 1019.7
20260503182033 11 331 12.9 27.4 0.00 0.23 0.23 58 1019.8
20260503181540 11 325 14.5 27.4 0.00 0.23 0.23 58 1019.7
20260503181133 12 321 12.9 19.3 0.00 0.23 0.23 57 1019.6
20260503180532 12 334 11.3 17.7 0.00 0.23 0.23 56 1019.7
20260503180133 12 355 9.7 20.9 0.00 0.23 0.23 56 1019.6
20260503175530 12 333 11.3 25.7 0.00 0.23 0.23 56 1019.6
20260503175030 12 355 14.5 25.7 0.00 0.23 0.23 56 1019.6
20260503174543 12 325 12.9 22.5 0.00 0.23 0.23 56 1019.5
20260503174030 12 360 9.7 32.2 0.00 0.23 0.23 56 1019.4
20260503173529 12 331 17.7 32.2 0.00 0.23 0.23 56 1019.4
20260503173039 12 10 16.1 25.7 0.00 0.23 0.23 56 1019.3
20260503172528 12 350 4.8 17.7 0.00 0.23 0.23 56 1019.4
20260503172031 12 360 9.7 17.7 0.00 0.23 0.23 55 1019.2
20260503171527 12 15 9.7 17.7 0.00 0.23 0.23 55 1019.2
20260503171029 12 315 3.2 27.4 0.00 0.23 0.23 55 1019.2
20260503170530 12 347 12.9 27.4 0.00 0.23 0.23 55 1019.1
20260503150524 13 335 16.1 29.0 0.00 0.23 0.23 51 1018.3
20260503131008 13 19 16.1 33.8 0.00 0.23 0.23 51 1018.2
20260503130507 13 348 20.9 37.0 0.00 0.23 0.23 51 1018.1
20260503110553 11 310 16.1 24.1 0.00 0.23 0.23 67 1018.7
20260503081543 12 13 22.5 40.2 0.00 0.23 0.23 59 1018.3
20260503081041 12 350 29.0 40.2 0.00 0.23 0.23 58 1017.9
20260503080541 12 22 19.3 38.6 0.00 0.23 0.23 58 1018.1
20260503072537 11 20 17.7 29.0 0.00 0.23 0.23 65 1017.9
20260503072032 11 62 19.3 30.6 0.00 0.23 0.23 66 1018.0
20260503071530 11 28 16.1 30.6 0.00 0.23 0.23 65 1017.9
20260503071029 10 86 16.1 25.7 0.00 0.23 0.23 71 1018.0
20260503070528 9 17 6.4 19.3 0.00 0.23 0.23 73 1018.0
20260503055018 7 355 8.0 20.9 0.05 0.23 0.23 82 1018.4
20260503054518 7 24 11.3 25.7 0.05 0.23 0.20 82 1018.5
20260503054019 7 71 9.7 32.2 0.05 0.23 0.20 81 1018.6
20260503053517 7 77 17.7 32.2 0.05 0.20 0.18 81 1018.7
20260503053019 7 83 20.9 33.8 0.05 0.20 0.18 81 1018.6
20260503052516 7 60 16.1 35.4 0.05 0.20 0.18 82 1018.3
20260503052015 7 90 20.9 37.0 0.05 0.20 0.18 82 1018.2
20260503051530 7 77 22.5 38.6 0.03 0.18 0.15 82 1018.2
20260503051013 7 71 22.5 38.6 0.03 0.18 0.15 81 1018.2
20260503050512 7 93 25.7 38.6 0.05 0.18 0.15 81 1018.1
20260503050011 7 92 25.7 35.4 0.05 0.18 0.15 81 1018.0
20260503045510 7 66 14.5 27.4 0.05 0.18 0.15 80 1018.1
20260503045009 7 111 9.7 25.7 0.05 0.18 0.15 80 1018.0
20260503044508 7 93 14.5 27.4 0.03 0.15 0.15 80 1018.1
20260503044008 7 103 19.3 27.4 0.03 0.15 0.15 79 1018.0
20260503043507 7 77 14.5 25.7 0.03 0.15 0.15 79 1018.0
20260503043007 7 34 12.9 25.7 0.03 0.15 0.15 79 1017.9
20260503042507 8 78 4.8 12.9 0.03 0.15 0.15 79 1018.1
20260503042005 8 52 1.6 16.1 0.03 0.15 0.15 79 1018.1
20260503041505 8 64 8.0 17.7 0.03 0.15 0.15 79 1018.0
20260503041008 8 192 8.0 17.7 0.03 0.15 0.15 80 1017.8
20260503040505 7 97 1.6 12.9 0.00 0.15 0.13 80 1017.8
20260503040005 7 78 8.0 12.9 0.00 0.15 0.13 80 1017.7
20260503035504 8 94 6.4 11.3 0.00 0.15 0.13 80 1017.7
20260503035005 8 90 1.6 8.0 0.00 0.15 0.13 80 1017.7
20260503034505 8 22 3.2 8.0 0.00 0.15 0.13 79 1017.6
20260503034004 8 69 1.6 8.0 0.03 0.15 0.13 79 1017.6
20260503033505 8 76 0.0 9.7 0.03 0.15 0.13 79 1017.5
20260503033005 8 103 3.2 9.7 0.03 0.15 0.13 78 1017.4
20260503032503 8 83 6.4 22.5 0.05 0.15 0.13 77 1017.3
20260503032003 8 14 8.0 22.5 0.05 0.15 0.13 76 1017.2
20260503031503 8 336 6.4 17.7 0.05 0.15 0.13 76 1017.2
20260503031003 8 327 12.9 20.9 0.05 0.15 0.13 76 1017.2
20260503030502 8 337 12.9 27.4 0.05 0.15 0.13 76 1017.2
20260503030003 8 355 17.7 27.4 0.05 0.15 0.13 77 1017.2
20260503025502 8 337 6.4 14.5 0.05 0.15 0.13 79 1017.3
20260503025002 8 61 6.4 14.5 0.05 0.15 0.13 79 1017.4
20260503024502 8 360 3.2 16.1 0.05 0.15 0.13 79 1017.2
20260503024002 8 326 9.7 16.1 0.05 0.15 0.10 78 1017.3
20260503023102 8 329 9.7 19.3 0.05 0.15 0.10 77 1017.5
20260503023002 8 323 11.3 19.3 0.05 0.15 0.10 77 1017.4
20260503022600 8 328 6.4 29.0 0.03 0.13 0.08 77 1017.5
20260503022100 8 10 12.9 30.6 0.03 0.13 0.08 76 1017.5